Weather Roundup
Issued by NWS

Home | Current Version | Previous Version | Graphics & Text | Print | Product List | Glossary Off
Versions: 1 2 3 4 5 6 7 8 9 10 11 12 13 14 15 16 17 18 19 20 21 22 23 24 25 26 27 28 29 30 31 32 33 34 35 36 37 38 39 40 41 42 43 44 45 46 47 48 49 50

000
NZUS93 KARX 311310
HRRWXR

CURRENT HOURLY OBSERVATIONS ACROSS
MUCH OF THE UPPER MISSISSIPPI VALLEY
NATIONAL WEATHER SERVICE LA CROSSE WI
700 AM CST SAT JAN 31 2015


...SOUTHEAST MINNESOTA...


CITY           SKY/WX    TMP DP  RH WIND       PRES   REMARKS
ROCHESTER      MOCLDY    22  18  85 W7        30.12S WCI  13
ROCHESTER/MAYO CLOUDY    24  20  83 W5        30.14R WCI  18
WINONA         CLOUDY    25  19  80 CALM      30.17S
AUSTIN         PTCLDY    18  16  93 CALM      30.13R
ALBERT LEA     PTCLDY    25  23  93 CALM      30.12S
DODGE CENTER   MOCLDY    21  19  93 CALM      30.12R
PRESTON        PTCLDY    19  17  88 CALM      30.14R
OWATONNA       PTCLDY    19  18  93 CALM      30.12S FOG
FARIBAULT      CLOUDY    21  19  93 CALM      30.14R
$$

...ELSEWHERE IN MINNESOTA...


CITY           SKY/WX    TMP DP  RH WIND       PRES   REMARKS
MINNEAPOLIS    MOCLDY    20  17  88 NW5       30.15R WCI  13
INTNL FALLS    PTCLDY     6   0  76 NW9       30.23R WCI  -8
DULUTH         CLOUDY    20  13  74 NW9       30.14R WCI   9
RED WING       CLOUDY    25  21  86 CALM      30.14F
REDWOOD FALLS  CLOUDY    24  21  88 N9        30.16R WCI  14
MANKATO        PTCLDY    21  18  86 N8        30.13S WCI  12
WORTHINGTON    CLOUDY    25  21  86 N10       30.13S WCI  15
FAIRMONT       PTCLDY    25  21  86 NW7       30.12F WCI  17
$$

...SOUTHWEST WISCONSIN...


CITY           SKY/WX    TMP DP  RH WIND       PRES   REMARKS
LA CROSSE      CLOUDY    24  16  71 S6        30.17R WCI  17
PRAIRIE DU CHI PTCLDY    19  13  79 CALM      30.19R
BOSCOBEL       PTCLDY    14  10  84 CALM      30.20R
LONE ROCK      PTCLDY    16  11  80 CALM      30.19R
PLATTEVILLE    PTCLDY    20  17  86 S6        30.17S WCI  13
FORT MC COY    CLOUDY    26  16  67 CALM      30.16S
CAMP DOUGLAS   CLOUDY    26  20  81 SW3       30.15R
VIROQUA        CLOUDY    22  16  79 SW5       30.14R WCI  15
WIS DELLS      PTCLDY    20  14  76 W5        30.16S WCI  14
$$

...ELSEWHERE IN WISCONSIN...


CITY           SKY/WX    TMP DP  RH WIND       PRES   REMARKS
MILWAUKEE      CLOUDY    25  17  72 SW13      30.18F WCI  14
MADISON        PTCLDY    23  15  71 CALM      30.18R
GREEN BAY      CLOUDY    22  16  78 SW7       30.16R WCI  13
EAU CLAIRE     CLOUDY    23  14  68 CALM      30.15R
BLACK RVR FLS  CLOUDY    22  16  77 CALM      30.15R
MEDFORD        CLOUDY    19  14  79 NW3       30.10S
WAUSAU         CLOUDY    20  11  68 NW3       30.11R
WIS RAPIDS     CLOUDY    22  13  68 CALM      30.15R
MARSHFIELD     CLOUDY    21  14  74 CALM      30.12R
RICE LAKE      CLOUDY    20  16  81 CALM      30.15S
$$

...NORTHEAST IOWA...


CITY           SKY/WX    TMP DP  RH WIND       PRES   REMARKS
DECORAH        PTCLDY    23  18  80 SW5       30.14S WCI  17
MASON CITY     MOCLDY    26  22  84 W9        30.15R WCI  17
CHARLES CITY   MOCLDY    19  18  93 SW6       30.16R WCI  11
OELWEIN        MOCLDY    21  18  86 S6        30.17S WCI  14
$$

...ELSEWHERE IN IOWA...


CITY           SKY/WX    TMP DP  RH WIND       PRES   REMARKS
DES MOINES     CLOUDY    36  28  73 SW10      30.20S WCI  28
IOWA CITY      CLOUDY    30  23  75 SW6       30.23S WCI  24
FORT DODGE     CLOUDY    30  27  86 S5        30.14S WCI  25
$$

...NORTHERN ILLINOIS...


CITY           SKY/WX    TMP DP  RH WIND       PRES   REMARKS
CHICAGO-OHARE  MOCLDY    24  18  77 SW8       30.23F WCI  15
CHICAGO-MIDWAY MOCLDY    26  20  77 SW7       30.26S WCI  18
MOLINE         MOCLDY    29  20  69 SW7       30.23R WCI  22
ROCKFORD       PTCLDY    22  16  78 S8        30.22F WCI  12
PEORIA         MOCLDY    26  20  77 SW7       30.29R WCI  18
$$

NOTE: "FAIR" INDICATES FEW OR NO CLOUDS BELOW 12,000 FEET WITH NO
SIGNIFICANT WEATHER AND/OR OBSTRUCTIONS TO VISIBILITY. WIND
SPEEDS ARE IN MILES-PER-HOUR.



USA.gov is the U.S. government's official web portal to all federal, state and local government web resources and services.